Regional Weather Roundup
Issued by NWS Green Bay, WI

Home | Current Version | Previous Version | Text Only | Print | Product List | Glossary On
Versions: 1 2 3 4 5 6 7 8 9 10 11 12 13 14 15 16 17 18 19 20 21 22 23 24 25 26 27 28 29 30 31 32 33 34 35 36 37 38 39 40 41 42 43 44 45 46 47 48 49 50
000
ASUS43 KGRB 160259
RWRGRB

NORTH-CENTRAL AND NORTHEAST WISCONSIN REGIONAL WEATHER ROUNDUP
NATIONAL WEATHER SERVICE GREEN BAY WI
1000 PM CDT MON SEP 15 2014

WIZ005-009-010>012-018-019-160400-
NORTH CENTRAL WISCONSIN

CITY           SKY/WX    TMP DP  RH WIND       PRES   REMARKS
IRONWOOD       CLEAR     37  36  93 SW3       30.13S
MANITOWISH WTR NOT AVBL
ARBOR VITAE    NOT AVBL
EAGLE RIVER    NOT AVBL
LAND O LAKES   NOT AVBL
RHINELANDER    NOT AVBL
PHILLIPS       NOT AVBL
ANTIGO         NOT AVBL
TOMAHAWK       NOT AVBL
MERRILL        NOT AVBL
$$

WIZ013-073-160400-
NORTHEAST WISCONSIN

CITY           SKY/WX    TMP DP  RH WIND       PRES   REMARKS
IRON MOUNTAIN  CLEAR     41  38  89 CALM      30.13S
MARINETTE      CLEAR     52  43  71 N10       30.12R
$$

WIZ017-030-035>037-045-160400-
CENTRAL WISCONSIN

CITY           SKY/WX    TMP DP  RH WIND       PRES   REMARKS
MEDFORD        NOT AVBL
WAUSAU         CLEAR     46  40  79 CALM      30.17R
MOSINEE        CLEAR     45  41  87 NW7       30.19R
MARSHFIELD     CLEAR     43  39  86 NW5       30.18R
WISC RAPIDS    CLEAR     46  41  82 NW5       30.20R
STEVENS POINT  NOT AVBL
WAUPACA        NOT AVBL
SHAWANO        NOT AVBL
CLINTONVILLE   NOT AVBL
$$

WIZ038-039-048-051-160400-
FOX VALLEY

CITY           SKY/WX    TMP DP  RH WIND       PRES   REMARKS
NWS GREEN BAY  CLEAR     46  45  96 W5        30.14R
APPLETON       PTCLDY    50  48  93 W9        30.15S
OSHKOSH        CLEAR     51  47  86 W6        30.15R
FOND DU LAC    CLEAR     48  45  89 SW5       30.15F
$$

WIZ022-050-052-160400-
EAST CENTRAL WISCONSIN

CITY           SKY/WX    TMP DP  RH WIND       PRES   REMARKS
STURGEON BAY   MOCLDY    50  46  87 SW3       30.12S
MANITOWOC      NOT AVBL
SHEBOYGAN      CLEAR     47  45  93 W6        30.15S
$$

LMZ563-521-522-541>543-160400-
LAKESHORE

STATION/POSITION TIME  TEMP    WIND        PRES    VSBY  WAVE
                       AIR SEA DIR/SP/G                  HT/PER
                 (UTC) (F)     (DEG/KT/KT) (MB)    (MI)  (FT/S)
SHEBOYGAN LKSHOR 0200   53 49  270/  8/  9 1021.2R
KEWAUNEE LKSHORE 0200   51                   N/A
NORTHPORT PIER   0200   55      40/  4/  6 1019.6R
N MID LAKE BUOY  0200   56 58  360/ 14/ 16 1019.6S         1
S GREEN BAY BUOY 0200   58     VRB 12/ 12  1020.7R
CHAMBERS ISLAND  0200   48     250/  3/  4 1020.0R
MENOMINEE LKSHOR 0200   56                   N/A
$$


USA.gov is the U.S. government's official web portal to all federal, state and local government web resources and services.